Regional Weather Roundup
Issued by NWS

Home | Current Version | Previous Version | Text Only | Print | Product List | Glossary On
Versions: 1 2 3 4 5 6 7 8 9 10 11 12 13 14 15 16 17 18 19 20 21 22 23 24 25 26 27 28 29 30 31 32 33 34 35 36 37 38 39 40 41 42 43 44 45 46 47 48 49 50
000
ASUS43 KLMK 242310
RWRKY
KENTUCKY REGIONAL WEATHER ROUNDUP
NATIONAL WEATHER SERVICE LOUISVILLE KY
700 PM EDT SAT JUN 24 2017

NOTE "FAIR" INDICATES FEW OR NO CLOUDS BELOW 12,000 FEET
WITH NO SIGNIFICANT WEATHER AND/OR OBSTRUCTIONS TO VISIBILITY.

KYZ001>023-026-027-061>063-070>075-250000-
WESTERN AND SOUTH CENTRAL KENTUCKY

CITY           SKY/WX    TMP DP  RH WIND       PRES   REMARKS
PADUCAH        MOSUNNY   77  51  40 NW8       30.09S
HENDERSON      CLOUDY    76  54  46 NW10      30.08S
OWENSBORO      MOSUNNY   76  55  48 W13       30.07R
HOPKINSVILLE   MOSUNNY   79  58  49 NW10      30.06S
BOWLING GREEN  MOSUNNY   78  58  49 NW9       30.05F
GLASGOW        MOSUNNY   78  57  48 N8        30.05S
$$

KYZ024-025-028>034-038-045-046-053-250000-
NORTH CENTRAL KENTUCKY

CITY           SKY/WX    TMP DP  RH WIND       PRES   REMARKS
LOUISVILLE/SDF PTSUNNY   77  53  43 NW12G20   30.03S
LOUISVILLE/LOU MOSUNNY   78  54  43 W14       30.04R
FORT KNOX      MOSUNNY   74  57  54 NW7       30.03S
$$

KYZ035>037-039>044-047>052-055>060-089>105-250000-
NORTHEAST KENTUCKY

CITY           SKY/WX    TMP DP  RH WIND       PRES   REMARKS
LEXINGTON      MOSUNNY   78  56  46 NW8G16    30.03S
COVINGTON      PTSUNNY   75  56  51 W12       30.01S
FRANKFORT      MOSUNNY   78  54  43 W10       30.02S
$$

KYZ054-064>069-076>088-106>120-250000-
SOUTHEAST KENTUCKY

CITY           SKY/WX    TMP DP  RH WIND       PRES   REMARKS
JACKSON        MOSUNNY   77  59  53 NW8       30.03R
LONDON         SUNNY     78  56  46 NW9G17    30.04R
SOMERSET       SUNNY     75  55  50 N7        30.06R
MIDDLESBORO    MOSUNNY   81  60  49 NW10      30.03R
MONTICELLO     PTCLDY    77  60  55 NW12      30.07R
$$




USA.gov is the U.S. government's official web portal to all federal, state and local government web resources and services.